Flag for Belgium Weather past 2 weeks in Charleroi, Belgium

Now
57 °F

Passing clouds.


Feels Like: 55 °F
Forecast: 41 / 53 °F
Wind: 8 mph from Northwest

Location: Charleroi / Gosselies


UV Index: 0 (Low)

Visibility: N/A


Pressure: 29.98 "Hg

Humidity: 41%

Dew point: 34 °F

Location of CharleroiLocation

Historic Weather in Charleroi

°F

Charleroi temperature yesterday

Maximum temperature yesterday: 59 °F (at 4:50 PM)
Minimum temperature yesterday: 32 °F (at 6:20 AM)
Average temperature yesterday: 47 °F

Past Weeks' High & Low Weather Summary

 TemperatureHumidityPressure
High70 °F (Apr 7, 3:20 PM)100% (Apr 9, 7:20 AM)30.42 "Hg (Apr 9, 7:20 AM)
Low32 °F (Apr 16, 6:20 AM)27% (Apr 17, 4:50 PM)29.56 "Hg (Apr 3, 5:20 AM)
Average52 °F69%30.08 "Hg
* Reported Apr 2 9:20 PM — Apr 17 9:50 PM, Charleroi, Weather by CustomWeather, © 2014

Note: Actual official high and low records may vary slightly from our data, if they occured in-between our weather recording intervals... More about our weather records

Advertising

Historic Weather Conditions — Data for Previous 24 hours

 ConditionsComfort  
Time TempWeatherWind HumidityBarometerVisibility
9:50 PM
Apr 17
57 °FPassing clouds.8 mph41%29.98 "HgN/A
9:20 PM57 °FPassing clouds.8 mph48%30.01 "HgN/A
8:50 PM59 °FSunny.9 mph42%29.98 "Hg10 mi
8:20 PM59 °FSunny.9 mph42%30.01 "Hg10 mi
7:50 PM59 °FSunny.10 mph42%30.01 "Hg10 mi
6:50 PM61 °FSunny.14 mph36%30.01 "Hg10 mi
6:20 PM61 °FSunny.13 mph36%30.04 "Hg10 mi
5:50 PM61 °FSunny.13 mph31%30.04 "Hg10 mi
5:20 PM61 °FPassing clouds.13 mph27%30.04 "HgN/A
4:50 PM63 °FPassing clouds.12 mph27%30.07 "HgN/A
4:20 PM63 °FSunny.13 mph32%30.07 "Hg10 mi
3:50 PM63 °FSunny.13 mph30%30.07 "Hg10 mi
3:20 PM61 °FPassing clouds.10 mph31%30.09 "HgN/A
2:50 PM61 °FPassing clouds.10 mph29%30.09 "HgN/A
2:20 PM59 °FPassing clouds.12 mph31%30.12 "HgN/A
1:50 PM59 °FPassing clouds.8 mph31%30.15 "HgN/A
1:20 PM59 °FPassing clouds.8 mph31%30.15 "HgN/A
12:50 PM59 °FSunny.10 mph29%30.15 "Hg10 mi
12:20 PM59 °FPassing clouds.9 mph34%30.18 "HgN/A
11:50 AM57 °FPassing clouds.10 mph39%30.18 "HgN/A
11:20 AM55 °FPassing clouds.10 mph36%30.21 "HgN/A
10:50 AM54 °FPassing clouds.9 mph38%30.21 "HgN/A
10:20 AM54 °FPassing clouds.10 mph41%30.21 "HgN/A
9:50 AM52 °FPassing clouds.12 mph44%30.21 "HgN/A
9:20 AM50 °FPassing clouds.8 mph47%30.21 "HgN/A
8:50 AM48 °FPassing clouds.7 mph50%30.21 "HgN/A
8:20 AM45 °FPassing clouds.7 mph61%30.24 "HgN/A
7:50 AM43 °FSunny.6 mph61%30.24 "Hg10 mi
7:20 AM41 °FClear.7 mph66%30.24 "Hg10 mi
6:50 AM41 °FClear.7 mph61%30.24 "Hg10 mi
6:20 AM43 °FClear.6 mph61%30.24 "Hg10 mi
5:50 AM41 °FClear.6 mph61%30.24 "Hg10 mi
5:20 AM41 °FClear.6 mph66%30.24 "Hg10 mi
4:20 AM43 °FClear.6 mph61%30.27 "Hg10 mi
3:50 AM45 °FClear.6 mph57%30.27 "Hg10 mi
3:20 AM45 °FClear.6 mph57%30.27 "Hg10 mi
2:50 AM45 °FClear.6 mph57%30.27 "Hg10 mi
2:20 AM46 °FClear.5 mph53%30.30 "Hg10 mi
1:50 AM46 °FClear.6 mph53%30.30 "Hg10 mi
1:20 AM46 °FClear.5 mph53%30.30 "Hg10 mi
12:50 AM46 °FClear.7 mph53%30.30 "Hg10 mi
12:20 AM48 °FClear.7 mph50%30.30 "Hg10 mi
11:50 PM
Apr 16
48 °FClear.3 mph58%30.30 "Hg10 mi
11:20 PM48 °FPassing clouds.5 mph58%30.30 "HgN/A
10:50 PM48 °FPassing clouds.5 mph54%30.30 "HgN/A
10:20 PM50 °FClear.6 mph54%30.30 "Hg10 mi
Weather by CustomWeather, © 2014

See weather overview